Back to catalog

YAOGAN-33 04

AliveMilitarySSO
NORAD 57958·PAYLOAD·🇨🇳 China

Launched Sep 26, 2023 from Jiuquan Satellite Launch Center

Loading…

Next Passes (next 24 hours)

TLE

FreshSource: Space-Track

Epoch: Sep 14, 2026, 15:19 UTC

1 57958U 23149A   26257.63839892  .00000329  00000-0  80153-4 0  9998
2 57958  98.2045 205.8819 0002090  83.9367 276.2071 14.58799625158043

Track YAOGAN-33 04 in real time with AllMySat

Download on the App Store